Tracking 18032 objects as of 27-March-2017
HD Live streaming from Space Station
objects crossing your sky now

UNHA 3 R/B

Track UNHA 3 R/B now!
10-day predictions


NORAD ID: 39027
Int'l Code: 2012-072B
Perigee: 488.3 km
Apogee: 571.0 km
Inclination: 97.3 °
Period: 95.1 minutes
Semi major axis: 6900 km
RCS: 1.274 m2 (large)
Launch date: December 12, 2012
Source: North Korea (NKOR)
Launch site: Yunsong, DPRK (YUN)

Note: This is a ROCKET BODY
Your satellite tracking list
Your tracking list is empty





NASA's NSSDC Master Catalog

Two Line Element Set (TLE):
1 39027U 12072B   17084.95531074 +.00000811 +00000-0 +45637-4 0  9996
2 39027 097.2611 093.8156 0059922 162.6918 197.6376 15.14504486204408
Source of the keplerian elements: AFSPC